Location: Kawakawa
(35.3830°S, 174.0670°E)
Time: 13:09:25
(UTC+13:00)

Cosmos 2208 Rocket - Pass Details

Date: 24 January 2019
Orbit: 754 x 806 km, 74.0° (Epoch: 18 February)

Event Time Altitude Azimuth Distance (km) Brightness Sun altitude
Rises 21:57:57 0° 197° (SSW) 3,244 8.2 -14.9°
Reaches altitude 10° 22:00:20 10° 196° (SSW) 2,315 7.3 -15.3°
Maximum altitude 22:05:36 84° 108° (ESE) 780 3.9 -16.1°
Enters shadow 22:09:00 23° 20° (NNE) 1,608 5.2 -16.6°
